Lake Shasta Weather Center

Moon Phase Calendar



Lake Shasta Water Level
Online Cameras

 


      

Current Conditions in Lake Shasta
12/7/2022 11:41:29 AM

50°F
Feels Like 50
Clear
Humidity
45%
Pressure
30.18"
Wind
2.1 mph (SSE)
Dew Point
29°F
UV Index
2/10 (Low)
Visibility
6 mi

Hourly Forecast

Date & Time Wed, Dec 7
11:00 AM
Wed, Dec 7
12:00 PM
Wed, Dec 7
1:00 PM
Wed, Dec 7
2:00 PM
Wed, Dec 7
3:00 PM
Wed, Dec 7
4:00 PM
Wed, Dec 7
5:00 PM
Wed, Dec 7
6:00 PM
Wed, Dec 7
7:00 PM
Wed, Dec 7
8:00 PM
Wed, Dec 7
9:00 PM
Wed, Dec 7
10:00 PM
Wed, Dec 7
11:00 PM
Thu, Dec 8
12:00 AM
Thu, Dec 8
1:00 AM
Thu, Dec 8
2:00 AM
Thu, Dec 8
3:00 AM
Thu, Dec 8
4:00 AM
Thu, Dec 8
5:00 AM
Thu, Dec 8
6:00 AM
Thu, Dec 8
7:00 AM
Thu, Dec 8
8:00 AM
Thu, Dec 8
9:00 AM
Thu, Dec 8
10:00 AM
Thu, Dec 8
11:00 AM
Thu, Dec 8
12:00 PM
Thu, Dec 8
1:00 PM
Thu, Dec 8
2:00 PM
Thu, Dec 8
3:00 PM
Thu, Dec 8
4:00 PM
Thu, Dec 8
5:00 PM
Thu, Dec 8
6:00 PM
Thu, Dec 8
7:00 PM
Thu, Dec 8
8:00 PM
Thu, Dec 8
9:00 PM
Thu, Dec 8
10:00 PM
Thu, Dec 8
11:00 PM
Fri, Dec 9
12:00 AM
Fri, Dec 9
1:00 AM
Fri, Dec 9
2:00 AM
Fri, Dec 9
3:00 AM
Fri, Dec 9
4:00 AM
Fri, Dec 9
5:00 AM
Fri, Dec 9
6:00 AM
Fri, Dec 9
7:00 AM
Fri, Dec 9
8:00 AM
Fri, Dec 9
9:00 AM
Fri, Dec 9
10:00 AM
Condition
Clear

Clear

Clear

Clear

Clear

Clear

Clear

Clear

Clear

Clouds

Clouds

Clouds

Clouds

Clouds

Clouds

Clouds

Clouds

Clouds

Clouds

Clouds

Clouds

Clouds

Clouds

Clouds

Clouds

Snow

Rain

Rain

Rain

Rain

Rain

Rain

Rain

Rain

Rain

Rain

Rain

Clouds

Clouds

Clouds

Clouds

Clouds

Clouds

Clouds

Clouds

Clouds

Clouds

Clouds
Temperature 49°F50°F50°F49°F49°F45°F39°F37°F36°F35°F37°F38°F39°F39°F40°F40°F40°F40°F40°F40°F40°F40°F40°F40°F40°F40°F39°F38°F38°F37°F37°F37°F37°F38°F37°F36°F36°F35°F34°F34°F32°F31°F30°F29°F28°F28°F32°F34°F
Feels Like 49°F50°F49°F48°F47°F45°F39°F37°F34°F32°F34°F36°F39°F39°F40°F40°F40°F40°F40°F40°F40°F40°F40°F40°F40°F38°F39°F38°F38°F37°F37°F37°F37°F38°F34°F36°F36°F35°F34°F31°F29°F27°F25°F24°F23°F23°F28°F34°F
Cloudiness 0%0%0%0%1%2%7%6%7%24%38%48%99%99%100%100%100%100%100%100%100%100%100%100%100%100%100%100%100%100%100%100%100%100%100%100%95%96%89%87%85%83%71%83%82%83%86%88%
Visibility 6 mi6 mi6 mi6 mi6 mi6 mi6 mi6 mi6 mi6 mi6 mi6 mi6 mi6 mi6 mi6 mi6 mi6 mi6 mi6 mi6 mi6 mi6 mi6 mi6 mi6 mi0 mi0 mi0 mi0 mi0 mi0 mi0 mi0 mi0 mi0 mi1 mi2 mi3 mi6 mi6 mi6 mi6 mi6 mi6 mi6 mi6 mi6 mi
Precipitation 0%0%0%0%0%0%0%0%0%0%0%0%11%11%11%11%15%17%26%22%26%34%39%31%37%50%65%84%94%100%100%100%100%100%100%100%57%57%58%58%54%49%0%0%0%0%0%7%
Humidity 46%45%46%47%50%61%76%80%83%85%82%79%77%77%78%79%81%83%84%85%86%87%87%88%90%92%96%98%99%99%99%99%99%99%100%100%99%98%98%97%96%94%94%93%93%92%89%89%
Dew Point 29°F29°F30°F30°F31°F33°F30°F30°F29°F29°F30°F30°F30°F31°F32°F32°F33°F33°F34°F34°F34°F34°F35°F35°F35°F36°F36°F36°F36°F35°F34°F35°F35°F35°F35°F34°F33°F33°F32°F31°F29°F28°F26°F25°F24°F24°F27°F30°F
Pressure 30.18"30.18"30.18"30.18"30.18"30.21"30.21"30.24"30.27"30.3"30.3"30.3"30.3"30.3"30.3"30.3"30.3"30.27"30.27"30.27"30.27"30.27"30.27"30.27"30.27"30.21"30.18"30.15"30.12"30.09"30.06"30.09"30.06"30.06"30.06"30.06"30.09"30.12"30.12"30.15"30.18"30.18"30.21"30.24"30.24"30.27"30.24"30.27"
Wind Speed 2.2 mph2.1 mph3.6 mph4.4 mph4.1 mph2.6 mph0.7 mph1.9 mph3.1 mph3.6 mph3.6 mph3.1 mph2.8 mph2.7 mph2.6 mph1.8 mph1.3 mph0.7 mph0.5 mph1.6 mph1.4 mph2 mph2.5 mph2.3 mph2.6 mph3.1 mph2 mph0.6 mph0.7 mph1.1 mph0.5 mph2.1 mph1.7 mph2.6 mph3.5 mph2.4 mph0.5 mph2.4 mph3 mph3.1 mph3.8 mph4 mph4.6 mph4.5 mph4.3 mph4.4 mph3.9 mph2 mph
Wind
Direction
63°
ENE
154°
SSE
177°
S
176°
S
165°
SSE
155°
SSE
124°
SE

N

N

N
356°
N
350°
N
342°
NNW
335°
NNW
337°
NNW

N
17°
NNE
342°
NNW
51°
NE
105°
ESE
138°
SE
158°
SSE
152°
SSE
157°
SSE
149°
SSE
169°
S
200°
SSW
196°
SSW
25°
NNE
43°
NE
90°
E
232°
SW
200°
SSW
252°
WSW
293°
WNW
297°
WNW
341°
NNW
327°
NNW
327°
NNW
324°
NW
325°
NW
329°
NNW
330°
NNW
335°
NNW
339°
NNW
345°
NNW
345°
NNW
349°
N

Daily Forecast

Date High Low Precip. Humidity
Today
Dec 7

Clear
50 °F
31 °F
11%
45%
Thursday
Dec 8

Snow
40 °F
36 °F
100%
92%
Friday
Dec 9

Snow
37 °F
28 °F
100%
94%
Saturday
Dec 10

Rain
40 °F
36 °F
100%
98%
Sunday
Dec 11

Rain
39 °F
35 °F
100%
99%
Monday
Dec 12

Clouds
40 °F
26 °F
0%
87%
Tuesday
Dec 13

Clouds
40 °F
23 °F
0%
82%
Wednesday
Dec 14

Clouds
40 °F
24 °F
0%
79%
Thursday
Dec 15

Clouds
40 °F
23 °F
0%
75%
Friday
Dec 16

Clouds
41 °F
23 °F
0%
75%
Saturday
Dec 17

Clouds
41 °F
24 °F
0%
75%
Sunday
Dec 18

Clouds
40 °F
26 °F
51%
82%
Monday
Dec 19

Clouds
38 °F
21 °F
0%
74%
Tuesday
Dec 20

Snow
34 °F
21 °F
82%
75%
Wednesday
Dec 21

Snow
35 °F
32 °F
100%
100%
Thursday
Dec 22

Rain
35 °F
23 °F
29%
100%

Temperature 8-14 Day Outlook



Precipitation 8-14 Day Outlook






About Us
Contact Us
Site Map
Search Site
Advertise With Us
   
Shasta.USLakes.info
THE LAKE SHASTA WEBSITE

Copyright 2022, Lakes Online
Privacy    |    Legal